Location: Gesvres
(49.0440°N, 2.8518°E)
Time: 22:45:23
(UTC+00:00)

Cosmos 2263 Rocket - Pass Details

Date: 28 January 2023
Orbit: 824 x 847 km, 71.0° (Epoch: 29 March)

Event Time Altitude Azimuth Distance (km) Brightness Sun altitude
Rises 18:49:56 0° 326° (NW) 3,376 5.7 -21.4°
Reaches altitude 10° 18:52:30 10° 319° (NW) 2,437 5.1 -21.8°
Maximum altitude 18:57:39 40° 252° (WSW) 1,208 3.5 -22.7°
Drops below altitude 10° 19:02:46 10° 185° (S) 2,419 4.6 -23.5°
Sets 19:05:19 0° 178° (S) 3,349 5.3 -23.9°
